| time (UTC) | temp F | wind direction | speed knots | gust knots | rain 1hr in | rain 24hr in | rain mn in | humidity % | barometer mb |
| 20260504040020 | 51 | 321 | 3.5 | 7.8 | 0.00 | 0.00 | 0.00 | 42 | 1014.9 |
| 20260504035507 | 51 | 333 | 4.3 | 9.6 | 0.00 | 0.00 | 0.00 | 42 | 1014.9 |
| 20260504035007 | 52 | 14 | 2.6 | 9.6 | 0.00 | 0.00 | 0.00 | 42 | 1014.7 |
| 20260504034504 | 52 | 322 | 3.5 | 8.7 | 0.00 | 0.00 | 0.00 | 41 | 1014.6 |
| 20260504034002 | 52 | 29 | 2.6 | 7.8 | 0.00 | 0.00 | 0.00 | 41 | 1014.6 |
| 20260504033506 | 52 | 313 | 3.5 | 7.0 | 0.00 | 0.00 | 0.00 | 41 | 1014.5 |
| 20260504033006 | 52 | 315 | 3.5 | 8.7 | 0.00 | 0.00 | 0.00 | 41 | 1014.3 |
| 20260504032504 | 53 | 351 | 5.2 | 10.4 | 0.00 | 0.00 | 0.00 | 41 | 1014.3 |
| 20260504032004 | 53 | 345 | 2.6 | 10.4 | 0.00 | 0.00 | 0.00 | 41 | 1014.1 |
| 20260504031510 | 53 | 335 | 3.5 | 12.2 | 0.00 | 0.00 | 0.00 | 41 | 1013.9 |
| 20260504031005 | 53 | 311 | 4.3 | 12.2 | 0.00 | 0.00 | 0.00 | 41 | 1013.9 |
| 20260504030503 | 53 | 6 | 3.5 | 7.0 | 0.00 | 0.00 | 0.00 | 41 | 1013.8 |
| 20260504030013 | 53 | 327 | 3.5 | 8.7 | 0.00 | 0.00 | 0.00 | 41 | 1013.7 |
| 20260504025507 | 54 | 349 | 3.5 | 8.7 | 0.00 | 0.00 | 0.00 | 40 | 1013.6 |
| 20260504025004 | 54 | 14 | 3.5 | 9.6 | 0.00 | 0.00 | 0.00 | 39 | 1013.6 |
| 20260504024519 | 54 | 339 | 3.5 | 9.6 | 0.00 | 0.00 | 0.00 | 39 | 1013.4 |
| 20260504024008 | 55 | 350 | 3.5 | 9.6 | 0.00 | 0.00 | 0.00 | 39 | 1013.3 |
| 20260504023507 | 55 | 319 | 5.2 | 13.9 | 0.00 | 0.00 | 0.00 | 38 | 1013.3 |
| 20260504023022 | 55 | 307 | 3.5 | 13.9 | 0.00 | 0.00 | 0.00 | 38 | 1013.2 |
| 20260504022503 | 55 | 312 | 4.3 | 12.2 | 0.00 | 0.00 | 0.00 | 37 | 1013.1 |
| 20260504022004 | 56 | 335 | 3.5 | 12.2 | 0.00 | 0.00 | 0.00 | 37 | 1013.2 |
| 20260504021506 | 56 | 26 | 4.3 | 12.2 | 0.00 | 0.00 | 0.00 | 36 | 1013.1 |
| 20260504021003 | 56 | 57 | 7.0 | 13.9 | 0.00 | 0.00 | 0.00 | 34 | 1012.9 |
| 20260504020503 | 56 | 346 | 5.2 | 13.9 | 0.00 | 0.00 | 0.00 | 35 | 1012.8 |
| 20260504020010 | 57 | 327 | 6.1 | 13.9 | 0.00 | 0.00 | 0.00 | 34 | 1012.8 |
| 20260504015502 | 57 | 324 | 6.1 | 13.9 | 0.00 | 0.00 | 0.00 | 35 | 1012.8 |
| 20260504015002 | 57 | 316 | 7.8 | 13.9 | 0.00 | 0.00 | 0.00 | 34 | 1012.6 |
| 20260504014513 | 57 | 304 | 7.0 | 14.8 | 0.00 | 0.00 | 0.00 | 34 | 1012.6 |
| 20260504014005 | 57 | 345 | 7.8 | 15.6 | 0.00 | 0.00 | 0.00 | 34 | 1012.5 |
| 20260504013506 | 57 | 316 | 5.2 | 15.6 | 0.00 | 0.00 | 0.00 | 34 | 1012.5 |
| 20260504013021 | 58 | 330 | 7.8 | 14.8 | 0.00 | 0.00 | 0.00 | 34 | 1012.5 |
| 20260504012505 | 58 | 354 | 6.1 | 16.5 | 0.00 | 0.00 | 0.00 | 34 | 1012.4 |
| 20260504012007 | 58 | 333 | 8.7 | 16.5 | 0.00 | 0.00 | 0.00 | 34 | 1012.5 |
| 20260504011522 | 58 | 333 | 6.1 | 18.2 | 0.00 | 0.00 | 0.00 | 34 | 1012.4 |
| 20260504011010 | 58 | 10 | 7.8 | 22.6 | 0.00 | 0.00 | 0.00 | 34 | 1012.1 |
| 20260504010502 | 58 | 325 | 8.7 | 22.6 | 0.00 | 0.00 | 0.00 | 34 | 1012.2 |
| 20260504010009 | 58 | 310 | 7.8 | 18.2 | 0.00 | 0.00 | 0.00 | 33 | 1012.2 |
| 20260504005504 | 59 | 311 | 7.8 | 18.2 | 0.00 | 0.00 | 0.00 | 34 | 1012.1 |
| 20260504005004 | 59 | 20 | 7.8 | 20.9 | 0.00 | 0.00 | 0.00 | 34 | 1012.2 |
| 20260504004516 | 59 | 302 | 9.6 | 20.9 | 0.00 | 0.00 | 0.00 | 33 | 1012.1 |
| 20260504004007 | 59 | 337 | 10.4 | 20.9 | 0.00 | 0.00 | 0.00 | 33 | 1012.4 |
| 20260504003506 | 60 | 311 | 7.0 | 17.4 | 0.00 | 0.00 | 0.00 | 32 | 1012.0 |
| 20260504003015 | 60 | 327 | 7.0 | 17.4 | 0.00 | 0.00 | 0.00 | 32 | 1012.0 |
| 20260504002506 | 61 | 349 | 7.0 | 18.2 | 0.00 | 0.00 | 0.00 | 32 | 1011.8 |
| 20260504002008 | 61 | 326 | 7.0 | 23.5 | 0.00 | 0.00 | 0.00 | 32 | 1012.0 |
| 20260504001523 | 61 | 193 | 9.6 | 23.5 | 0.00 | 0.00 | 0.00 | 31 | 1011.9 |
| 20260504001007 | 61 | 297 | 8.7 | 19.1 | 0.00 | 0.00 | 0.00 | 31 | 1011.8 |
| 20260504000506 | 62 | 27 | 7.8 | 19.1 | 0.00 | 0.00 | 0.00 | 31 | 1011.8 |
| 20260504000025 | 62 | 332 | 7.8 | 20.0 | 0.00 | 0.00 | 0.00 | 31 | 1011.5 |
| 20260503235508 | 62 | 32 | 7.0 | 20.0 | 0.00 | 0.00 | 0.00 | 31 | 1011.5 |
| 20260503235011 | 63 | 22 | 7.0 | 16.5 | 0.00 | 0.00 | 0.00 | 31 | 1011.4 |
| 20260503234516 | 63 | 32 | 4.3 | 16.5 | 0.00 | 0.00 | 0.00 | 31 | 1011.4 |
| 20260503234004 | 63 | 316 | 6.1 | 15.6 | 0.00 | 0.00 | 0.00 | 31 | 1011.4 |
| 20260503233503 | 63 | 50 | 7.0 | 15.6 | 0.00 | 0.00 | 0.00 | 30 | 1011.3 |
| 20260503233012 | 63 | 351 | 8.7 | 15.6 | 0.00 | 0.00 | 0.00 | 30 | 1011.4 |
| 20260503232505 | 63 | 323 | 7.8 | 15.6 | 0.00 | 0.00 | 0.00 | 30 | 1011.3 |
| 20260503232004 | 63 | 304 | 7.8 | 14.8 | 0.00 | 0.00 | 0.00 | 30 | 1011.3 |
| 20260503231522 | 63 | 15 | 7.0 | 14.8 | 0.00 | 0.00 | 0.00 | 31 | 1011.2 |
| 20260503231009 | 63 | 37 | 4.3 | 17.4 | 0.00 | 0.00 | 0.00 | 31 | 1011.2 |
| 20260503230508 | 64 | 312 | 8.7 | 18.2 | 0.00 | 0.00 | 0.00 | 30 | 1011.3 |
| 20260503230024 | 65 | 356 | 7.8 | 18.2 | 0.00 | 0.00 | 0.00 | 29 | 1011.0 |
| 20260503225506 | 66 | 342 | 9.6 | 17.4 | 0.00 | 0.00 | 0.00 | 29 | 1010.8 |
| 20260503225007 | 66 | 299 | 7.0 | 16.5 | 0.00 | 0.00 | 0.00 | 29 | 1010.9 |
| 20260503224526 | 67 | 356 | 7.0 | 16.5 | 0.00 | 0.00 | 0.00 | 28 | 1011.1 |
| 20260503224010 | 67 | 312 | 6.1 | 13.0 | 0.00 | 0.00 | 0.00 | 28 | 1010.7 |
| 20260503223508 | 68 | 311 | 4.3 | 13.0 | 0.00 | 0.00 | 0.00 | 28 | 1010.8 |
| 20260503223029 | 67 | 252 | 4.3 | 15.6 | 0.00 | 0.00 | 0.00 | 28 | 1010.6 |
| 20260503222504 | 67 | 301 | 5.2 | 15.6 | 0.00 | 0.00 | 0.00 | 29 | 1010.6 |
| 20260503222003 | 67 | 334 | 7.0 | 13.9 | 0.00 | 0.00 | 0.00 | 28 | 1010.6 |
| 20260503221516 | 68 | 270 | 6.1 | 14.8 | 0.00 | 0.00 | 0.00 | 28 | 1010.7 |
| 20260503221008 | 67 | 297 | 6.1 | 18.2 | 0.00 | 0.00 | 0.00 | 28 | 1010.6 |
| 20260503220511 | 68 | 326 | 6.1 | 18.2 | 0.00 | 0.00 | 0.00 | 28 | 1010.7 |
| 20260503220018 | 68 | 23 | 5.2 | 13.9 | 0.00 | 0.00 | 0.00 | 28 | 1010.7 |
| 20260503215508 | 68 | 342 | 4.3 | 13.9 | 0.00 | 0.00 | 0.00 | 29 | 1010.7 |
| 20260503215008 | 67 | 38 | 4.3 | 12.2 | 0.00 | 0.00 | 0.00 | 29 | 1010.7 |
| 20260503214537 | 67 | 349 | 5.2 | 14.8 | 0.00 | 0.00 | 0.00 | 29 | 1010.8 |
| 20260503214009 | 67 | 316 | 6.1 | 14.8 | 0.00 | 0.00 | 0.00 | 29 | 1010.8 |
| 20260503213504 | 67 | 267 | 6.1 | 14.8 | 0.00 | 0.00 | 0.00 | 28 | 1010.7 |
| 20260503213008 | 67 | 225 | 5.2 | 11.3 | 0.00 | 0.00 | 0.00 | 28 | 1011.1 |
| 20260503212508 | 67 | 314 | 3.5 | 11.3 | 0.00 | 0.00 | 0.00 | 29 | 1011.0 |
| 20260503212004 | 67 | 309 | 5.2 | 14.8 | 0.00 | 0.00 | 0.00 | 29 | 1010.9 |
| 20260503211514 | 67 | 1 | 7.0 | 14.8 | 0.00 | 0.00 | 0.00 | 28 | 1011.0 |
| 20260503211004 | 67 | 320 | 7.0 | 14.8 | 0.00 | 0.00 | 0.00 | 29 | 1010.8 |
| 20260503210506 | 67 | 345 | 5.2 | 14.8 | 0.00 | 0.00 | 0.00 | 28 | 1010.8 |
| 20260503210016 | 67 | 255 | 4.3 | 16.5 | 0.00 | 0.00 | 0.00 | 28 | 1010.9 |
| 20260503205505 | 67 | 310 | 3.5 | 16.5 | 0.00 | 0.00 | 0.00 | 29 | 1011.0 |
| 20260503205005 | 67 | 322 | 4.3 | 12.2 | 0.00 | 0.00 | 0.00 | 29 | 1011.0 |
| 20260503204519 | 67 | 278 | 4.3 | 14.8 | 0.00 | 0.00 | 0.00 | 28 | 1010.9 |
| 20260503204007 | 67 | 295 | 4.3 | 14.8 | 0.00 | 0.00 | 0.00 | 28 | 1011.0 |
| 20260503203507 | 67 | 263 | 4.3 | 13.0 | 0.00 | 0.00 | 0.00 | 29 | 1010.9 |
| 20260503203024 | 67 | 308 | 4.3 | 11.3 | 0.00 | 0.00 | 0.00 | 29 | 1011.0 |
| 20260503202509 | 67 | 248 | 4.3 | 14.8 | 0.00 | 0.00 | 0.00 | 29 | 1011.0 |
| 20260503202010 | 67 | 11 | 6.1 | 14.8 | 0.00 | 0.00 | 0.00 | 29 | 1011.0 |
| 20260503201508 | 67 | 294 | 7.0 | 12.2 | 0.00 | 0.00 | 0.00 | 28 | 1010.9 |
| 20260503201007 | 67 | 323 | 5.2 | 12.2 | 0.00 | 0.00 | 0.00 | 29 | 1011.0 |
| 20260503200504 | 66 | 217 | 6.1 | 13.9 | 0.00 | 0.00 | 0.00 | 28 | 1011.0 |
| 20260503200016 | 67 | 284 | 6.1 | 13.9 | 0.00 | 0.00 | 0.00 | 29 | 1011.1 |
| 20260503195504 | 67 | 298 | 5.2 | 14.8 | 0.00 | 0.00 | 0.00 | 29 | 1011.1 |
| 20260503195005 | 66 | 301 | 6.1 | 14.8 | 0.00 | 0.00 | 0.00 | 29 | 1011.1 |
| 20260503194518 | 66 | 312 | 4.3 | 12.2 | 0.00 | 0.00 | 0.00 | 29 | 1011.1 |
| 20260503194009 | 66 | 292 | 6.1 | 14.8 | 0.00 | 0.00 | 0.00 | 29 | 1011.2 |
| 20260503193507 | 67 | 320 | 3.5 | 14.8 | 0.00 | 0.00 | 0.00 | 30 | 1011.2 |
| 20260503193029 | 66 | 308 | 6.1 | 15.6 | 0.00 | 0.00 | 0.00 | 28 | 1011.3 |
| 20260503192507 | 67 | 289 | 5.2 | 15.6 | 0.00 | 0.00 | 0.00 | 30 | 1011.3 |
| 20260503192011 | 66 | 312 | 3.5 | 15.6 | 0.00 | 0.00 | 0.00 | 30 | 1011.4 |
| 20260503191526 | 66 | 304 | 6.1 | 15.6 | 0.00 | 0.00 | 0.00 | 30 | 1011.5 |
| 20260503191008 | 65 | 1 | 7.0 | 15.6 | 0.00 | 0.00 | 0.00 | 30 | 1011.4 |
| 20260503190507 | 65 | 304 | 6.1 | 13.9 | 0.00 | 0.00 | 0.00 | 30 | 1011.4 |
| 20260503190028 | 66 | 277 | 7.0 | 13.0 | 0.00 | 0.00 | 0.00 | 29 | 1011.5 |
| 20260503185502 | 65 | 281 | 5.2 | 13.0 | 0.00 | 0.00 | 0.00 | 31 | 1011.6 |
| 20260503185006 | 65 | 276 | 4.3 | 13.0 | 0.00 | 0.00 | 0.00 | 31 | 1011.5 |
| 20260503184518 | 65 | 257 | 5.2 | 13.0 | 0.00 | 0.00 | 0.00 | 31 | 1011.5 |
| 20260503184007 | 65 | 257 | 6.1 | 15.6 | 0.00 | 0.00 | 0.00 | 31 | 1011.5 |
| 20260503183508 | 66 | 309 | 5.2 | 19.1 | 0.00 | 0.00 | 0.00 | 31 | 1011.6 |
| 20260503183020 | 66 | 260 | 6.1 | 19.1 | 0.00 | 0.00 | 0.00 | 31 | 1011.6 |
| 20260503182505 | 66 | 342 | 6.1 | 18.2 | 0.00 | 0.00 | 0.00 | 31 | 1011.6 |
| 20260503182012 | 65 | 311 | 6.1 | 18.2 | 0.00 | 0.00 | 0.00 | 32 | 1011.6 |
| 20260503181523 | 65 | 212 | 6.1 | 13.9 | 0.00 | 0.00 | 0.00 | 32 | 1011.6 |
| 20260503181010 | 65 | 296 | 6.1 | 15.6 | 0.00 | 0.00 | 0.00 | 32 | 1011.5 |
| 20260503180510 | 65 | 319 | 5.2 | 15.6 | 0.00 | 0.00 | 0.00 | 32 | 1011.5 |
| 20260503180042 | 65 | 297 | 4.3 | 13.9 | 0.00 | 0.00 | 0.00 | 33 | 1011.5 |
| 20260503175509 | 65 | 289 | 5.2 | 12.2 | 0.00 | 0.00 | 0.00 | 33 | 1011.6 |
| 20260503175009 | 65 | 302 | 5.2 | 11.3 | 0.00 | 0.00 | 0.00 | 33 | 1011.6 |
| 20260503174541 | 64 | 313 | 5.2 | 11.3 | 0.00 | 0.00 | 0.00 | 34 | 1011.5 |
| 20260503174004 | 64 | 297 | 6.1 | 16.5 | 0.00 | 0.00 | 0.00 | 34 | 1011.6 |
| 20260503173504 | 64 | 238 | 6.1 | 16.5 | 0.00 | 0.00 | 0.00 | 35 | 1011.5 |
| 20260503173025 | 64 | 262 | 5.2 | 13.9 | 0.00 | 0.00 | 0.00 | 34 | 1011.6 |
| 20260503172506 | 64 | 293 | 6.1 | 13.9 | 0.00 | 0.00 | 0.00 | 34 | 1011.6 |
| 20260503172009 | 64 | 291 | 5.2 | 12.2 | 0.00 | 0.00 | 0.00 | 35 | 1011.6 |
| 20260503171521 | 64 | 304 | 3.5 | 13.9 | 0.00 | 0.00 | 0.00 | 35 | 1011.6 |
| 20260503171008 | 63 | 302 | 6.1 | 13.9 | 0.00 | 0.00 | 0.00 | 35 | 1011.7 |
| 20260503170509 | 63 | 1 | 5.2 | 11.3 | 0.00 | 0.00 | 0.00 | 35 | 1011.6 |
| 20260503151002 | 58 | 285 | 6.1 | 13.0 | 0.00 | 0.00 | 0.00 | 37 | 1012.2 |
| 20260503150505 | 58 | 264 | 3.5 | 12.2 | 0.00 | 0.00 | 0.00 | 37 | 1012.4 |
| 20260503131003 | 49 | 222 | 0.9 | 3.5 | 0.00 | 0.00 | 0.00 | 44 | 1012.2 |
| 20260503130506 | 49 | 214 | 0.9 | 3.5 | 0.00 | 0.00 | 0.00 | 44 | 1012.1 |
| 20260503110503 | 50 | 257 | 1.7 | 4.3 | 0.00 | 0.00 | 0.00 | 39 | 1012.5 |
| 20260503090507 | 49 | 231 | 0.0 | 0.9 | 0.00 | 0.00 | 0.00 | 41 | 1012.8 |
| 20260503081534 | 53 | 255 | 1.7 | 5.2 | 0.00 | 0.00 | 0.00 | 36 | 1012.7 |
| 20260503081004 | 53 | 278 | 1.7 | 3.5 | 0.00 | 0.00 | 0.00 | 36 | 1012.6 |
| 20260503080507 | 53 | 271 | 1.7 | 4.3 | 0.00 | 0.00 | 0.00 | 36 | 1012.6 |
| 20260503072512 | 54 | 256 | 1.7 | 3.5 | 0.00 | 0.00 | 0.00 | 35 | 1012.7 |
| 20260503072011 | 55 | 237 | 0.9 | 2.6 | 0.00 | 0.00 | 0.00 | 34 | 1012.6 |
| 20260503071528 | 55 | 273 | 1.7 | 3.5 | 0.00 | 0.00 | 0.00 | 34 | 1012.6 |
| 20260503071004 | 55 | 267 | 1.7 | 5.2 | 0.00 | 0.00 | 0.00 | 34 | 1012.6 |
| 20260503070506 | 56 | 272 | 2.6 | 6.1 | 0.00 | 0.00 | 0.00 | 34 | 1012.5 |
| 20260503055007 | 58 | 263 | 7.0 | 13.9 | 0.00 | 0.00 | 0.00 | 33 | 1012.3 |
| 20260503054522 | 57 | 290 | 5.2 | 8.7 | 0.00 | 0.00 | 0.00 | 37 | 1012.2 |
| 20260503054007 | 55 | 270 | 2.6 | 5.2 | 0.00 | 0.00 | 0.00 | 41 | 1012.1 |
| 20260503053507 | 55 | 224 | 0.9 | 1.7 | 0.00 | 0.00 | 0.00 | 43 | 1012.2 |
| 20260503053003 | 55 | 256 | 0.0 | 1.7 | 0.00 | 0.00 | 0.00 | 42 | 1012.2 |
| 20260503052502 | 55 | 217 | 0.9 | 1.7 | 0.00 | 0.00 | 0.00 | 42 | 1012.2 |
| 20260503052004 | 55 | 231 | 0.0 | 1.7 | 0.00 | 0.00 | 0.00 | 43 | 1012.3 |
| 20260503051512 | 54 | 207 | 0.0 | 3.5 | 0.00 | 0.00 | 0.00 | 43 | 1012.4 |
| 20260503051003 | 55 | 131 | 0.0 | 3.5 | 0.00 | 0.00 | 0.00 | 43 | 1012.4 |
| 20260503050503 | 55 | 130 | 0.9 | 2.6 | 0.00 | 0.00 | 0.00 | 42 | 1012.4 |
| 20260503050017 | 55 | 191 | 0.0 | 1.7 | 0.00 | 0.00 | 0.00 | 41 | 1012.4 |
| 20260503045506 | 55 | 193 | 0.0 | 1.7 | 0.00 | 0.00 | 0.00 | 41 | 1012.3 |
| 20260503045005 | 55 | 230 | 0.0 | 1.7 | 0.00 | 0.00 | 0.00 | 40 | 1012.3 |
| 20260503044516 | 55 | 131 | 0.0 | 0.9 | 0.00 | 0.00 | 0.00 | 40 | 1012.5 |
| 20260503044006 | 56 | 224 | 0.0 | 1.7 | 0.00 | 0.00 | 0.00 | 39 | 1012.4 |
| 20260503043507 | 56 | 223 | 0.0 | 1.7 | 0.00 | 0.00 | 0.00 | 39 | 1012.4 |
| 20260503043022 | 56 | 240 | 0.0 | 0.9 | 0.00 | 0.00 | 0.00 | 39 | 1012.4 |
| 20260503042508 | 57 | 217 | 0.0 | 0.0 | 0.00 | 0.00 | 0.00 | 38 | 1012.4 |
| 20260503042012 | 57 | 209 | 0.0 | 0.0 | 0.00 | 0.00 | 0.00 | 37 | 1012.5 |
| 20260503041524 | 57 | 205 | 0.0 | 1.7 | 0.00 | 0.00 | 0.00 | 37 | 1012.6 |
| 20260503041002 | 58 | 205 | 0.0 | 1.7 | 0.00 | 0.00 | 0.00 | 36 | 1012.7 |
| 20260503040503 | 58 | 213 | 0.9 | 0.9 | 0.00 | 0.00 | 0.00 | 36 | 1012.7 |